GPS BIIR-5 (PRN 28)

Last updated on Fri Jun 25 2021 12:15:50 GMT+0100 (British Summer Time)

1 26407U 00040A 21175.84709858 -.00000034 00000-0 00000-0 0 9996 2 26407 55.7157 287.4493 0177103 282.6133 344.7599 2.00557040153476
UTC large
Height (km)
Speed (km/s)
/
Latitude / Longitude
Inclination (degrees)
Orbital Period (minutes)
Azimuth
Elevation
Range (km)
Doppler Factor

Next 0 passes for location: London (51.5072 / 0.1276)

Sorry there are no passes over London.